7 * 24
多渠道服务支持
ZHUHAI-1 OHS-01 是由中国珠海宇航公司研制的一颗商业遥感卫星,主要用于提供高分辨率的地球观测数据。该卫星具备高精度光学成像能力,广泛应用于城市规划、环境监测、农业评估等领域。作为珠海系列卫星的一部分,OHS-01 采用模块化设计,具有较高的任务灵活性和数据获取效率。其成功发射标志着中国在商业航天和遥感服务领域的进一步拓展,为全球用户提供高质量的遥感数据支持。
中国
(CN)
| 数据来源 | 国际轨道数据 |
| 星历时间: | 2024-11-11T05:53:27+0800 轨道信息已过期352天 |
| 半长轴: | 6525.477km |
| 偏心率: | 0.0009607 |
| 轨道倾角: | 97.075° |
| 近地点辐角 | 251.776° |
| 升交点赤经 | 4.362° |
| 平近点角 | 108.249° |
| 近地点: | 141.072km |
| 远地点: | 153.612km |
| 周期: | 87.434分钟 |
| 每日圈数: | 16.469651 |